Miscellaneous Local Product
Issued by NWS North Platte, NE

Home | Current Version | Previous Version | Graphics & Text | Print | Product List | Glossary On
Versions: 1 2 3 4 5 6 7 8 9 10 11 12 13 14 15 16 17 18 19 20 21 22 23 24 25 26 27 28 29 30 31 32 33 34 35 36 37 38 39 40 41 42 43 44 45 46 47 48 49 50
000
AXUS43 KLBF 230310
MISLBF


WESTERN AND NORTH CENTRAL NEBRASKA HOURLY WEATHER ROUNDUP
NATIONAL WEATHER SERVICE NORTH PLATTE NE
900 PM CST WED FEB 22 2017

NOTE: "FAIR" INDICATES FEW OR NO CLOUDS BELOW 12,000 FEET WITH NO
SIGNIFICANT WEATHER AND/OR OBSTRUCTIONS TO VISIBILITY.

NOTE: STATIONS NOT REPORTING VARIABLES SUCH AS SKY/WEATHER OR
PRESSURE ARE PROVIDED BY RAWS AND APRS NETWORKS AND ARE NOT UNDER
NATIONAL WEATHER SERVICE QUALITY CONTROL.

...OBSERVATIONS IN AND NEAR THE EASTERN PANHANDLE OF NEBRASKA...

CITY           SKY/WX    TMP DP  RH WIND       PRES   REMARKS
PINE RIDGE     MOCLDY    38  31  76 NE9       29.87R WCI  31
CHADRON        CLOUDY    38  30  73 NE20G25   29.88R WCI  28
ALLIANCE       CLOUDY    42  29  59 NE23G29   29.81R
SIDNEY         PTCLDY    42  16  34 NE10      29.78F
CRESCENT LAKE    N/A     46  21  36 NE12        N/A
$$

...OBSERVATIONS IN NORTHERN NEBRASKA AND FAR SOUTHERN SOUTH DAKOTA...

CITY           SKY/WX    TMP DP  RH WIND       PRES   REMARKS
WINNER         CLOUDY    39  33  79 N16G25    29.89R WCI  30
VALENTINE      MOCLDY    38  32  79 N14       29.87R WCI  30
THEDFORD       CLOUDY    44  35  71 N17G26    29.83R
AINSWORTH      CLEAR     39  36  89 N16       29.85S WCI  30
O`NEILL        CLEAR     45  37  73 N14       29.84R
ORD            CLEAR     40  28  62 N3        29.79R
BROKEN BOW     PTCLDY    40  29  64 N6        29.78S
VALENTINE NWR    N/A     41  34  77 N7G16       N/A
BUTTE            N/A     41  37  84 N9G17       N/A
HALSEY           N/A     47  25  42 N5G12       N/A
CHAMBERS         N/A     45  33  62 N5          N/A
EWING            N/A     44  37  75 CALM        N/A
$$

...OBSERVATIONS IN SOUTHWEST NEBRASKA AND FAR NORTHEAST COLORADO...

CITY           SKY/WX    TMP DP  RH WIND       PRES   REMARKS
HOLYOKE        FAIR      39  21  48 N8        29.76F WCI  34
IMPERIAL       CLEAR     39  21  48 NE9       29.75F WCI  33
OGALLALA       CLOUDY    43  22  43 N10       29.77S
NORTH PLATTE   CLEAR     43  23  45 NE9       29.77S
MCCOOK         CLEAR     45  24  43 NE9       29.73F
LEXINGTON      CLEAR     42  25  50 NE9       29.76F
STAPLETON        N/A     44  24  45 CALM        N/A
GOTHENBURG       N/A     42  21  42 N7          N/A
CALLAWAY         N/A     44  27  51 E7          N/A
$$

...OBSERVATIONS IN CENTRAL LINCOLN COUNTY AREA...

CITY           SKY/WX    TMP DP  RH WIND       PRES   REMARKS
N.P. AIRPORT   CLEAR     43  23  45 NE9       29.77S
N.P. DOWNTOWN    N/A     47  25  42 NE3         N/A
N.P. SOUTHEAST   N/A     45  24  44 CALM        N/A
N.P. HILLCREST   N/A     47  25  41 E14         N/A
$$

...SOME OBSERVATIONS FROM AROUND THE REGION...

CITY           SKY/WX    TMP DP  RH WIND       PRES   REMARKS
LARAMIE        LGT SNOW  26  24  92 NE7       29.77F VSB 1   WCI  18
CHEYENNE       CLOUDY    32  25  75 N12       29.79F WCI  23
DENVER         CLOUDY    37  18  46 N10       29.77R WCI  30
AKRON          CLEAR     39  15  37 NE14      29.74F WCI  31
SCOTTSBLUFF    CLOUDY    43  24  47 CALM      29.81F
RAPID CITY     CLOUDY    33  27  78 N18       29.88S WCI  22
BISMARCK       CLOUDY    34  28  79 N8        29.98R WCI  27
PIERRE         CLOUDY    35  30  82 N17       29.91R WCI  25
SIOUX FALLS    PTCLDY    38  36  92 N9        29.82R WCI  31
OMAHA          CLEAR     48  35  60 N9        29.76R
GRAND ISLAND   CLEAR     42  33  70 NE6       29.79R
KANSAS CITY    MOCLDY    60  37  42 N12       29.68R
WICHITA        CLOUDY    57  47  69 CALM      29.69S
OKLAHOMA CITY  PTCLDY    61  40  45 SE3       29.70F
DALLAS         CLEAR     68  49  50 SE7       29.72S
AMARILLO       CLOUDY    62  30  29 W8        29.77F
DODGE CITY     PTCLDY    52  29  41 E10       29.68F
HAYS             N/A     49  29  46 NE7       29.71S
GOODLAND       CLEAR     41  21  44 E6        29.71F
$$




USA.gov is the U.S. government's official web portal to all federal, state and local government web resources and services.